TimeCDT,TemperatureF,Dew PointF,Humidity,Sea Level PressureIn,VisibilityMPH,Wind Direction,Wind SpeedMPH,Gust SpeedMPH,PrecipitationIn,Events,Conditions,WindDirDegrees,DateUTC
12:19 AM,28.4,26.6,93,30.12,8.0,Calm,Calm,-,N/A,,Mostly Cloudy,0,2012-11-03 05:19:00
12:53 AM,32.0,28.9,88,30.19,8.0,Calm,Calm,-,N/A,,Overcast,0,2012-11-03 05:53:00
1:37 AM,30.2,28.4,93,30.13,7.0,SE,4.6,-,N/A,,Scattered Clouds,130,2012-11-03 06:37:00
1:53 AM,30.9,28.0,89,30.18,7.0,SSE,5.8,-,N/A,,Clear,150,2012-11-03 06:53:00
2:53 AM,30.0,28.0,92,30.18,8.0,SE,4.6,-,N/A,,Partly Cloudy,130,2012-11-03 07:53:00
3:53 AM,34.0,30.9,89,30.18,10.0,SW,5.8,-,N/A,,Scattered Clouds,220,2012-11-03 08:53:00
4:53 AM,28.9,27.0,92,30.19,7.0,West,10.4,-,N/A,,Clear,260,2012-11-03 09:53:00
5:53 AM,30.9,28.9,92,30.21,7.0,WSW,6.9,-,N/A,,Overcast,250,2012-11-03 10:53:00
6:49 AM,32.0,30.2,93,30.16,8.0,WNW,6.9,-,N/A,,Mostly Cloudy,290,2012-11-03 11:49:00
6:53 AM,33.1,30.9,92,30.22,9.0,WNW,5.8,-,N/A,,Mostly Cloudy,290,2012-11-03 11:53:00
7:53 AM,36.0,35.1,97,30.24,9.0,West,5.8,-,N/A,,Overcast,260,2012-11-03 12:53:00
8:24 AM,37.4,35.6,93,30.19,10.0,West,8.1,-,N/A,,Overcast,280,2012-11-03 13:24:00
8:53 AM,37.9,36.0,93,30.25,10.0,WNW,6.9,-,N/A,,Overcast,290,2012-11-03 13:53:00
9:14 AM,37.4,35.6,93,30.20,10.0,WNW,11.5,-,N/A,,Overcast,300,2012-11-03 14:14:00
9:51 AM,37.4,35.6,93,30.21,10.0,NW,9.2,-,N/A,,Overcast,310,2012-11-03 14:51:00
9:53 AM,37.9,36.0,93,30.27,10.0,NW,10.4,-,N/A,,Overcast,310,2012-11-03 14:53:00
10:35 AM,37.4,35.6,93,30.21,9.0,NW,10.4,-,N/A,,Overcast,310,2012-11-03 15:35:00
10:53 AM,37.9,36.0,93,30.27,10.0,WNW,8.1,-,N/A,,Overcast,300,2012-11-03 15:53:00
11:48 AM,39.2,35.6,87,30.22,10.0,West,8.1,-,N/A,,Overcast,270,2012-11-03 16:48:00
11:53 AM,39.0,36.0,89,30.28,10.0,WNW,10.4,-,N/A,,Overcast,290,2012-11-03 16:53:00
12:09 PM,41.0,35.6,81,30.22,10.0,NW,10.4,-,N/A,,Overcast,310,2012-11-03 17:09:00
12:48 PM,44.6,35.6,71,30.21,10.0,NW,8.1,-,N/A,,Overcast,320,2012-11-03 17:48:00
12:53 PM,43.0,35.1,74,30.25,10.0,NW,5.8,-,N/A,,Mostly Cloudy,310,2012-11-03 17:53:00
1:17 PM,44.6,35.6,71,30.20,10.0,WNW,6.9,-,N/A,,Mostly Cloudy,300,2012-11-03 18:17:00
1:53 PM,46.0,36.0,68,30.23,10.0,North,5.8,-,N/A,,Scattered Clouds,360,2012-11-03 18:53:00
2:53 PM,48.0,36.0,63,30.21,10.0,NNW,4.6,-,N/A,,Partly Cloudy,340,2012-11-03 19:53:00
3:53 PM,50.0,36.0,59,30.19,10.0,Calm,Calm,-,N/A,,Scattered Clouds,0,2012-11-03 20:53:00
4:53 PM,50.0,36.0,59,30.19,10.0,Calm,Calm,-,N/A,,Mostly Cloudy,0,2012-11-03 21:53:00
5:53 PM,48.9,35.1,59,30.19,10.0,Calm,Calm,-,N/A,,Overcast,0,2012-11-03 22:53:00
6:53 PM,44.1,34.0,68,30.20,10.0,East,3.5,-,N/A,,Partly Cloudy,80,2012-11-03 23:53:00
7:53 PM,39.9,33.1,77,30.21,10.0,ENE,8.1,-,N/A,,Overcast,60,2012-11-04 00:53:00
8:53 PM,39.9,34.0,79,30.21,10.0,East,5.8,-,N/A,,Overcast,90,2012-11-04 01:53:00
9:53 PM,37.9,33.1,83,30.22,10.0,SE,6.9,-,N/A,,Mostly Cloudy,130,2012-11-04 02:53:00
10:53 PM,37.9,33.1,83,30.22,10.0,ESE,5.8,-,N/A,,Scattered Clouds,120,2012-11-04 03:53:00
11:53 PM,37.0,33.1,86,30.22,10.0,SE,4.6,-,N/A,,Mostly Cloudy,130,2012-11-04 04:53:00